FW7144 Weather Reports


time (UTC)temp
C
wind
direction
speed
KPH
gust
KPH
rain 1hr
cm
rain 24hr
cm
rain mn
cm
humidity
%
barometer
mb
20260507140205 19 0 0.0 0.0 0.00 0.00 0.00 64 1022.6
20260507135606 18 81 0.0 0.0 0.00 0.00 0.00 67 1022.6
20260507135006 18 104 0.0 4.8 0.00 0.00 0.00 69 1022.6
20260507134405 17 118 0.0 4.8 0.00 0.00 0.00 71 1022.5
20260507133805 17 137 0.0 4.8 0.00 0.00 0.00 72 1022.5
20260507133205 16 142 0.0 6.4 0.00 0.00 0.00 73 1022.5
20260507132605 16 145 0.0 6.4 0.00 0.00 0.00 75 1022.5
20260507132006 15 161 0.0 6.4 0.00 0.00 0.00 76 1022.4
20260507131405 15 141 0.0 4.8 0.00 0.00 0.00 77 1022.4
20260507130805 14 137 0.0 3.2 0.00 0.00 0.00 78 1022.5
20260507130205 13 123 0.0 4.8 0.00 0.00 0.00 80 1022.5
20260507125630 13 123 3.2 6.4 0.00 0.00 0.00 82 1022.5
20260507125005 12 130 4.8 6.4 0.00 0.00 0.00 82 1022.4
20260507124406 12 117 1.6 4.8 0.00 0.00 0.00 83 1022.3
20260507123830 11 93 0.0 0.0 0.00 0.00 0.00 83 1022.3
20260507123205 10 93 0.0 3.2 0.00 0.00 0.00 83 1022.2
20260507122605 10 93 0.0 6.4 0.00 0.00 0.00 82 1022.1
20260507122005 10 96 3.2 9.7 0.00 0.00 0.00 82 1022.1
20260507121405 11 103 6.4 6.4 0.00 0.00 0.00 82 1022.1
20260507120805 11 90 1.6 4.8 0.00 0.00 0.00 82 1022.1
20260507120205 11 87 4.8 4.8 0.00 0.00 0.00 83 1022.1
20260507115605 11 104 1.6 4.8 0.00 0.00 0.00 81 1022.1
20260507115005 11 101 3.2 6.4 0.00 0.00 0.00 82 1022.0
20260507114405 11 84 3.2 4.8 0.00 0.00 0.00 82 1022.1
20260507113806 11 49 0.0 3.2 0.00 0.00 0.00 82 1022.0
20260507113205 11 49 0.0 4.8 0.00 0.00 0.00 81 1022.0
20260507112605 11 49 0.0 4.8 0.00 0.00 0.00 81 1021.9
20260507112005 11 78 4.8 4.8 0.00 0.00 0.00 82 1021.9
20260507111405 12 78 0.0 9.7 0.00 0.00 0.00 80 1021.9
20260507110805 12 85 6.4 8.0 0.00 0.00 0.00 81 1021.9
20260507110205 12 96 0.0 3.2 0.00 0.00 0.00 81 1021.8
20260507105618 11 101 3.2 3.2 0.00 0.00 0.00 80 1021.8
20260507105005 12 104 0.0 4.8 0.00 0.00 0.00 80 1021.9
20260507104405 12 104 3.2 6.4 0.00 0.00 0.00 80 1021.8
20260507103806 12 108 3.2 6.4 0.00 0.00 0.00 80 1021.8
20260507103205 12 107 3.2 6.4 0.00 0.00 0.00 79 1021.8
20260507102605 12 115 4.8 4.8 0.00 0.00 0.00 79 1021.8
20260507102007 12 103 0.0 4.8 0.00 0.00 0.00 78 1021.7
20260507101405 12 94 0.0 0.0 0.00 0.00 0.00 76 1021.7
20260507100805 13 50 0.0 0.0 0.00 0.00 0.00 77 1021.6
20260507100206 14 68 0.0 4.8 0.00 0.00 0.00 76 1021.7
20260507095605 15 68 3.2 6.4 0.00 0.00 0.00 76 1021.6
20260507095005 14 109 3.2 3.2 0.00 0.00 0.00 77 1021.6
20260507094406 14 75 0.0 4.8 0.00 0.00 0.00 75 1021.6
20260507093805 15 76 0.0 0.0 0.00 0.00 0.00 74 1021.5
20260507093205 15 64 0.0 4.8 0.00 0.00 0.00 74 1021.5
20260507092630 15 88 0.0 4.8 0.00 0.00 0.00 74 1021.5
20260507092005 15 89 3.2 8.0 0.00 0.00 0.00 73 1021.5
20260507091405 15 84 4.8 8.0 0.00 0.00 0.00 73 1021.5
20260507090805 15 104 4.8 6.4 0.00 0.00 0.00 73 1021.4
20260507090205 15 71 4.8 11.3 0.00 0.00 0.00 73 1021.4
20260507085643 15 96 6.4 9.7 0.00 0.00 0.00 73 1021.5
20260507085030 15 88 6.4 11.3 0.00 0.00 0.00 73 1021.6
20260507084443 15 92 6.4 9.7 0.00 0.00 0.00 74 1021.6
20260507083806 15 92 4.8 8.0 0.00 0.00 0.00 74 1021.6
20260507083230 15 77 3.2 11.3 0.00 0.00 0.00 74 1021.7
20260507082605 15 77 6.4 8.0 0.00 0.00 0.00 74 1021.7
20260507082005 15 50 1.6 6.4 0.00 0.00 0.00 74 1021.7
20260507081405 15 82 0.0 11.3 0.00 0.00 0.00 72 1021.7
20260507080805 15 61 6.4 11.3 0.00 0.00 0.00 72 1021.7
20260507080206 14 65 0.0 8.0 0.00 0.00 0.00 73 1021.8
20260507075605 14 64 4.8 9.7 0.00 0.00 0.00 71 1021.9
20260507075005 15 68 3.2 9.7 0.00 0.00 0.00 70 1021.8
20260507074405 15 70 4.8 11.3 0.00 0.00 0.00 71 1021.9
20260507073805 13 84 8.0 12.9 0.00 0.00 0.00 70 1021.8
20260507073205 13 78 3.2 4.8 0.00 0.00 0.00 68 1021.9
20260507072605 13 127 3.2 8.0 0.00 0.00 0.00 67 1021.9
20260507072005 13 86 4.8 6.4 0.00 0.00 0.00 67 1021.9
20260507071430 13 63 0.0 4.8 0.00 0.00 0.00 69 1021.9
20260507070805 13 115 3.2 6.4 0.00 0.00 0.00 69 1022.0
20260507070205 13 45 3.2 4.8 0.00 0.00 0.00 69 1021.9
20260507065605 13 93 0.0 3.2 0.00 0.00 0.00 69 1022.0
20260507065005 13 63 0.0 3.2 0.00 0.00 0.00 67 1022.0
20260507064430 13 69 0.0 3.2 0.00 0.00 0.00 66 1022.0
20260507063805 14 65 0.0 6.4 0.00 0.00 0.00 65 1022.0
20260507063205 15 60 4.8 6.4 0.00 0.00 0.00 64 1022.1
20260507062605 15 87 3.2 8.0 0.00 0.00 0.00 62 1022.1
20260507062005 15 88 4.8 8.0 0.00 0.00 0.00 61 1022.1
20260507061405 15 78 4.8 11.3 0.00 0.00 0.00 60 1022.1
20260507060830 15 68 6.4 11.3 0.00 0.00 0.00 60 1022.1
20260507060205 15 96 8.0 6.4 0.00 0.00 0.00 61 1022.0
20260507055605 14 66 4.8 6.4 0.00 0.00 0.00 63 1022.1
20260507055005 14 58 3.2 4.8 0.00 0.00 0.00 62 1022.0
20260507054405 15 66 3.2 9.7 0.00 0.00 0.00 61 1022.0
20260507053805 15 80 6.4 9.7 0.00 0.00 0.00 61 1022.0
20260507053205 14 103 4.8 4.8 0.00 0.00 0.00 60 1022.0
20260507052605 15 79 3.2 4.8 0.00 0.00 0.00 59 1022.0
20260507052006 15 74 3.2 9.7 0.00 0.00 0.00 59 1022.0
20260507051405 16 77 3.2 6.4 0.00 0.00 0.00 58 1022.0
20260507050805 16 52 0.0 9.7 0.00 0.00 0.00 57 1022.0
20260507050205 16 66 0.0 6.4 0.00 0.00 0.00 59 1021.9
20260507045630 16 61 0.0 8.0 0.00 0.00 0.00 58 1021.8
20260507045005 16 63 4.8 9.7 0.00 0.00 0.00 58 1021.7
20260507043805 16 70 6.4 9.7 0.00 0.00 0.00 58 1021.5
20260507043218 16 75 0.0 6.4 0.00 0.00 0.00 59 1021.5
20260507042606 16 61 0.0 6.4 0.00 0.00 0.00 57 1021.4
20260507042005 18 79 0.0 6.4 0.00 0.00 0.00 52 1021.3
20260507041405 18 120 0.0 8.0 0.00 0.00 0.00 52 1021.3
20260507040830 17 84 0.0 4.8 0.00 0.00 0.00 52 1021.3
20260507040218 18 68 0.0 6.4 0.00 0.00 0.00 51 1021.1
20260507035605 19 330 0.0 6.4 0.00 0.00 0.00 50 1021.3
20260507035005 20 86 0.0 6.4 0.00 0.00 0.00 49 1021.1
20260507034405 19 71 3.2 9.7 0.00 0.00 0.00 51 1021.0
20260507033806 20 44 0.0 4.8 0.00 0.00 0.00 48 1021.0
20260507033217 21 144 0.0 9.7 0.00 0.00 0.00 46 1020.9
20260507032605 20 155 0.0 0.0 0.00 0.00 0.00 48 1020.8
20260507032005 20 322 0.0 4.8 0.00 0.00 0.00 50 1020.7
20260507031405 21 115 0.0 4.8 0.00 0.00 0.00 48 1020.6
20260507030805 21 177 0.0 11.3 0.00 0.00 0.00 47 1020.5
20260507030206 21 198 3.2 12.9 0.00 0.00 0.00 46 1020.4
20260507025606 21 221 0.0 12.9 0.00 0.00 0.00 46 1020.3
20260507025005 22 205 0.0 16.1 0.00 0.00 0.00 46 1020.2
20260507024405 22 230 3.2 16.1 0.00 0.00 0.00 45 1020.2
20260507023830 22 173 3.2 16.1 0.00 0.00 0.00 43 1020.1
20260507023205 22 237 3.2 20.9 0.00 0.00 0.00 42 1020.0
20260507022605 22 213 4.8 20.9 0.00 0.00 0.00 40 1019.9
20260507022005 22 203 4.8 20.9 0.00 0.00 0.00 41 1019.8
20260507021405 23 217 0.0 8.0 0.00 0.00 0.00 39 1019.8
20260507020805 23 159 3.2 9.7 0.00 0.00 0.00 37 1019.6
20260507020205 23 215 0.0 16.1 0.00 0.00 0.00 36 1019.5
20260507015605 24 230 6.4 14.5 0.00 0.00 0.00 34 1019.5
20260507015005 25 188 4.8 14.5 0.00 0.00 0.00 30 1019.3
20260507014430 25 165 0.0 17.7 0.00 0.00 0.00 26 1019.1
20260507013205 26 103 8.0 12.9 0.00 0.00 0.00 15 1018.5
20260507012630 26 98 4.8 16.1 0.00 0.00 0.00 16 1018.4
20260507012005 26 119 8.0 12.9 0.00 0.00 0.00 15 1018.3
20260507011417 26 94 0.0 6.4 0.00 0.00 0.00 15 1018.3
20260507010817 26 110 3.2 11.3 0.00 0.00 0.00 15 1018.3
20260507010205 27 120 4.8 12.9 0.00 0.00 0.00 14 1018.2
20260507005630 27 102 6.4 14.5 0.00 0.00 0.00 13 1018.2
20260507005030 27 121 4.8 17.7 0.00 0.00 0.00 13 1018.1
20260507004430 28 87 4.8 16.1 0.00 0.00 0.00 13 1018.0
20260507003805 28 135 9.7 25.7 0.00 0.00 0.00 13 1018.0
20260507003218 28 107 6.4 14.5 0.00 0.00 0.00 12 1018.0
20260507002605 29 79 0.0 8.0 0.00 0.00 0.00 12 1018.0
20260507002005 28 352 0.0 11.3 0.00 0.00 0.00 13 1018.0
20260507001405 29 347 0.0 12.9 0.00 0.00 0.00 13 1018.0
20260507000805 30 312 1.6 19.3 0.00 0.00 0.00 12 1018.0
20260507000205 31 253 4.8 24.1 0.00 0.00 0.00 11 1018.1
20260506235605 31 26 4.8 20.9 0.00 0.00 0.00 12 1018.0
20260506235005 31 334 4.8 29.0 0.00 0.00 0.00 10 1018.0
20260506234405 31 35 4.8 24.1 0.00 0.00 0.00 11 1018.0
20260506233805 31 52 0.0 16.1 0.00 0.00 0.00 11 1017.9
20260506233205 30 334 0.0 12.9 0.00 0.00 0.00 13 1018.0
20260506232605 31 316 0.0 17.7 0.00 0.00 0.00 12 1017.9
20260506232005 31 278 0.0 14.5 0.00 0.00 0.00 11 1017.9
20260506231406 31 295 3.2 14.5 0.00 0.00 0.00 11 1018.0
20260506230805 31 41 0.0 19.3 0.00 0.00 0.00 12 1018.0
20260506230230 31 143 0.0 19.3 0.00 0.00 0.00 12 1018.1
20260506225605 30 346 3.2 20.9 0.00 0.00 0.00 13 1018.1
20260506225005 31 317 0.0 20.9 0.00 0.00 0.00 12 1018.1
20260506224417 31 333 3.2 19.3 0.00 0.00 0.00 13 1018.2
20260506223805 31 343 3.2 14.5 0.00 0.00 0.00 14 1018.3
20260506223206 31 354 0.0 16.1 0.00 0.00 0.00 10 1018.3
20260506222630 31 350 1.6 17.7 0.00 0.00 0.00 14 1018.3
20260506222005 32 338 3.2 11.3 0.00 0.00 0.00 11 1018.3
20260506221418 32 314 0.0 20.9 0.00 0.00 0.00 11 1018.5
20260506220830 31 351 0.0 22.5 0.00 0.00 0.00 10 1018.6
20260506220205 32 310 1.6 27.4 0.00 0.00 0.00 13 1018.7
20260506215643 31 324 6.4 19.3 0.00 0.00 0.00 12 1018.6
20260506215006 31 331 0.0 14.5 0.00 0.00 0.00 11 1018.7
20260506214405 32 2 0.0 20.9 0.00 0.00 0.00 12 1018.8
20260506213805 31 354 3.2 17.7 0.00 0.00 0.00 9 1018.8
20260506213205 32 349 1.6 33.8 0.00 0.00 0.00 14 1018.9
20260506212605 32 40 4.8 20.9 0.00 0.00 0.00 11 1018.7
20260506212005 31 335 3.2 25.7 0.00 0.00 0.00 14 1019.0
20260506211430 31 91 1.6 20.9 0.00 0.00 0.00 12 1019.1
20260506210805 31 314 9.7 33.8 0.00 0.00 0.00 10 1019.2
20260506210205 31 62 4.8 22.5 0.00 0.00 0.00 13 1019.2
20260506205605 31 335 9.7 17.7 0.00 0.00 0.00 12 1019.4
20260506205005 32 317 0.0 29.0 0.00 0.00 0.00 11 1019.3
20260506204405 31 343 0.0 20.9 0.00 0.00 0.00 14 1019.3
20260506203805 31 19 1.6 27.4 0.00 0.00 0.00 12 1019.4
20260506203205 31 0 0.0 33.8 0.00 0.00 0.00 10 1019.6
20260506202605 31 275 0.0 22.5 0.00 0.00 0.00 17 1019.6
20260506202017 32 341 3.2 20.9 0.00 0.00 0.00 11 1019.6
20260506201430 31 44 0.0 17.7 0.00 0.00 0.00 12 1019.6
20260506200805 31 59 0.0 20.9 0.00 0.00 0.00 11 1019.8
20260506200205 30 28 1.6 25.7 0.00 0.00 0.00 12 1019.8
20260506195605 31 2 6.4 32.2 0.00 0.00 0.00 11 1019.9
20260506195005 31 8 1.6 32.2 0.00 0.00 0.00 12 1019.9
20260506194405 30 296 6.4 27.4 0.00 0.00 0.00 11 1020.0
20260506193842 31 324 9.7 33.8 0.00 0.00 0.00 13 1020.2
20260506193206 31 289 4.8 35.4 0.00 0.00 0.00 12 1020.0
20260506192605 30 50 4.8 25.7 0.00 0.00 0.00 11 1020.2
20260506192006 31 12 6.4 40.2 0.00 0.00 0.00 10 1020.3
20260506191406 30 315 0.0 19.3 0.00 0.00 0.00 12 1020.1
20260506190805 30 340 0.0 33.8 0.00 0.00 0.00 13 1020.4
20260506190205 31 55 4.8 12.9 0.00 0.00 0.00 10 1020.4
20260506185605 31 352 0.0 20.9 0.00 0.00 0.00 13 1020.4
20260506185005 30 341 0.0 22.5 0.00 0.00 0.00 12 1020.4
20260506184405 31 348 0.0 19.3 0.00 0.00 0.00 15 1020.5
20260506183205 30 316 0.0 33.8 0.00 0.00 0.00 13 1020.5
20260506182606 30 287 6.4 19.3 0.00 0.00 0.00 12 1020.7
20260506182005 30 9 0.0 16.1 0.00 0.00 0.00 14 1020.8
20260506181406 29 113 0.0 22.5 0.00 0.00 0.00 12 1020.8
20260506180818 30 39 0.0 20.9 0.00 0.00 0.00 11 1020.9
20260506180205 30 24 4.8 22.5 0.00 0.00 0.00 13 1021.1
20260506175605 30 87 0.0 17.7 0.00 0.00 0.00 11 1021.0
20260506175005 30 15 0.0 16.1 0.00 0.00 0.00 12 1021.0
20260506174405 30 0 0.0 19.3 0.00 0.00 0.00 14 1021.0
20260506173805 29 331 6.4 20.9 0.00 0.00 0.00 15 1021.0
20260506173205 30 21 0.0 27.4 0.00 0.00 0.00 13 1021.0
20260506172605 29 336 6.4 29.0 0.00 0.00 0.00 16 1021.2
20260506172006 29 344 4.8 19.3 0.00 0.00 0.00 14 1021.2
20260506171418 28 284 6.4 17.7 0.00 0.00 0.00 13 1021.1
20260506170818 28 261 4.8 24.1 0.00 0.00 0.00 16 1021.2
20260506170205 28 346 3.2 9.7 0.00 0.00 0.00 16 1021.3
20260506165617 27 319 3.2 14.5 0.00 0.00 0.00 14 1021.4
20260506165005 27 262 0.0 9.7 0.00 0.00 0.00 13 1021.4
20260506164406 27 269 0.0 12.9 0.00 0.00 0.00 15 1021.4
20260506163805 27 269 9.7 16.1 0.00 0.00 0.00 15 1021.4
20260506163205 27 135 0.0 12.9 0.00 0.00 0.00 13 1021.4
20260506162605 27 300 3.2 11.3 0.00 0.00 0.00 15 1021.4
20260506162005 26 302 0.0 12.9 0.00 0.00 0.00 14 1021.4
20260506161430 27 338 4.8 11.3 0.00 0.00 0.00 19 1021.5
20260506160830 26 308 4.8 12.9 0.00 0.00 0.00 16 1021.5
20260506160205 26 63 0.0 8.0 0.00 0.00 0.00 15 1021.5
20260506155605 26 96 4.8 9.7 0.00 0.00 0.00 14 1021.5
20260506155005 26 107 0.0 6.4 0.00 0.00 0.00 15 1021.6
20260506154405 25 124 1.6 9.7 0.00 0.00 0.00 14 1021.6
20260506153830 25 83 3.2 11.3 0.00 0.00 0.00 14 1021.6
20260506153205 25 87 0.0 8.0 0.00 0.00 0.00 15 1021.6
20260506152605 25 329 0.0 8.0 0.00 0.00 0.00 15 1021.7
20260506152005 24 114 3.2 8.0 0.00 0.00 0.00 16 1021.7
20260506151405 25 324 0.0 3.2 0.00 0.00 0.00 17 1021.7
20260506150805 24 299 0.0 6.4 0.00 0.00 0.00 18 1021.7
20260506150206 24 274 0.0 6.4 0.00 0.00 0.00 20 1021.8
20260506145605 24 241 0.0 8.0 0.00 0.00 0.00 20 1021.8
20260506145030 23 272 0.0 4.8 0.00 0.00 0.00 22 1021.8
20260506144405 23 272 0.0 4.8 0.00 0.00 0.00 21 1021.8
20260506143805 22 237 0.0 4.8 0.00 0.00 0.00 25 1021.9
20260506143205 22 309 0.0 3.2 0.00 0.00 0.00 26 1022.0
20260506142605 21 288 0.0 0.0 0.00 0.00 0.00 28 1022.0
20260506142043 20 208 0.0 0.0 0.00 0.00 0.00 32 1022.0
20260506141405 19 220 0.0 0.0 0.00 0.00 0.00 36 1021.9
20260506140805 18 220 0.0 3.2 0.00 0.00 0.00 34 1021.9